Weather in Kalamaki

Greece     37°44′16″N   20°53′35″E
temp.,
°C
wind,
m/s
gust,
m/s
humid.,
%
clouds,
%
prec.,
mm/h
press.,
hPa
HPBL,
m
12 may, wed
wed1200:00+19ne01740 0.0 101415
03:00+19wsw11744 0.0 101318
06:00+18nne11725 0.0 101272
09:00+19s0070100 0.0 101273
12:00+20wnw126813 0.0 1012166
15:00+21wsw3465100 0.0 1011147
18:00+21wsw55680 0.0 1010163
21:00+19w56760 0.0 1010264
13 may, thu
thu1300:00+18wnw24780 0.0 1011249
03:00+18wnw46775 0.0 1010304
06:00+18wnw34755 0.0 1010266
09:00+18sw11724 0.0 1011255
12:00+19nnw23700 0.0 1012324
15:00+20wsw34610 0.0 1011341
18:00+19wsw56630 0.0 1012617
21:00+18wnw46690 0.0 1012366
14 may, fri
fri1400:00+18wnw56720 0.0 1013373
03:00+18w33710 0.0 1013246
06:00+17sw01720 0.0 1014174
09:00+17se11751 0.0 1015220
12:00+19s437199 0.0 1016351
15:00+20ssw44652 0.0 1016213
18:00+20sw55644 0.0 1015210
21:00+19sw34755 0.0 1015105
15 may, sat
sat1500:00+19s22785 0.0 101597
03:00+19sse347930 0.0 1014261
06:00+18sse44786 0.0 1013274
09:00+19s457789 0.0 1013307
12:00+20s5672100 0.0 1014298
15:00+20ssw7974100 0.0 1012402
18:00+20wnw5674100 0.4 1011374
21:00+18wnw8964100 0.5 1011910
16 may, sun
sun1600:00+18nw79680 0.0 1011675
03:00+18nw68660 0.0 1011604
06:00+18nw67700 0.0 1010654
09:00+18nw44673 0.0 1011655
12:00+19nnw45630 0.0 1012796
15:00+19nw896724 0.0 1012962
18:00+20nw89653 0.0 1011697
21:00+19wnw1011730 0.0 1011566